Location: Biltmore Gardens
(41.6070°N, 83.4666°W)
Time: 04:03:48
(UTC+00:00)

A-11 Canister half - Pass Details

Date: 27 April 2021
Orbit: 1526 x 1683 km, 47.3° (Epoch: 11 May)

Event Time Altitude Azimuth Distance (km) Brightness Sun altitude
Rises 01:19:57 0° 297° (WNW) 4,932 14.1 -9.9°
Reaches altitude 10° 01:23:10 10° 294° (WNW) 3,947 12.8 -10.4°
Maximum altitude 01:33:03 59° 219° (SW) 1,888 9.5 -12.0°
Enters shadow 01:41:56 13° 144° (SE) 3,632 10.4 -13.4°
